Weather History for Toccoa Rg Letourneau Field, T, GA

Change the Weather History Date:

Saturday, April 5, 2014

  Actual Average Record
Temperature  
Mean Temperature 64 °F -  
Max Temperature 75 °F 69 °F 75 °F (2014)
Min Temperature 52 °F 44 °F 52 °F (2014)
Degree Days  
Heating Degree Days 2    
Growing Degree Days 14 (Base 50)    
Moisture  
Dew Point 42 °F    
Average Humidity 51    
Maximum Humidity 88    
Minimum Humidity 20    
Precipitation  
Precipitation 0.00 in - - ()
Sea Level Pressure  
Sea Level Pressure 29.97 in    
Wind  
Wind Speed 5 mph (WSW)    
Max Wind Speed 10 mph    
Max Gust Speed 16 mph    
Visibility 10 miles    
Events      
Averages and records for this station are not official NWS values.
T = Trace of Precipitation, MM = Missing Value Source: NWS Daily Summary

Daily Weather History Graph

Daily Weather History Graph

Search for Another Location

Airport:

Trip Planner

Search our weather history database for the weather conditions in past years. The results will help you decide how hot, cold, wet, or windy it might be!

Date:

Astronomy

Apr. 05, 2014 Rise Set
Actual Time 7:14 AM EDT 7:57 PM EDT
Civil Twilight 6:49 AM EDT 8:22 PM EDT
Nautical Twilight 6:19 AM EDT 8:53 PM EDT
Astronomical Twilight 5:48 AM EDT 9:23 PM EDT
Moon 11:30 AM EDT (4/5) 12:57 AM EDT (4/5)
Length of Visible Light 13h 33m
Length of Day
12h 42m
Waxing Crescent, 34% of the Moon is Illuminated
Apr 5
Waxing Crescent
Apr 7
First Quarter
Apr 15
Full
Apr 22
Last Quarter
Apr 29
New

Hourly Weather History & Observations

Time (EDT) Temp. Dew Point Humidity Pressure Visibility Wind Dir Wind Speed Gust Speed Precip Events Conditions
12:15 AM 62.8 °F 54.5 °F 74% 29.94 in 10.0 mi WSW 5.8 mph - N/A   Clear
12:35 AM 61.7 °F 54.0 °F 76% 29.94 in 10.0 mi WSW 5.8 mph - N/A   Clear
12:55 AM 61.2 °F 54.0 °F 77% 29.94 in 10.0 mi WSW 6.9 mph - N/A   Clear
1:15 AM 60.4 °F 54.0 °F 79% 29.94 in 10.0 mi WSW 6.9 mph - N/A   Clear
1:35 AM 59.9 °F 54.0 °F 81% 29.93 in 10.0 mi WSW 5.8 mph - N/A   Clear
1:55 AM 60.1 °F 54.5 °F 82% 29.93 in 10.0 mi WSW 6.9 mph - N/A   Clear
2:15 AM 59.2 °F 54.5 °F 84% 29.93 in 10.0 mi WSW 5.8 mph - N/A   Clear
2:35 AM 59.0 °F 54.5 °F 85% 29.93 in 10.0 mi WSW 5.8 mph - N/A   Clear
2:55 AM 57.6 °F 54.1 °F 88% 29.93 in 10.0 mi WSW 5.8 mph - N/A   Clear
3:15 AM 60.1 °F 54.5 °F 82% 29.94 in 10.0 mi West 4.6 mph - N/A   Clear
3:35 AM 60.3 °F 53.6 °F 79% 29.94 in 10.0 mi West 4.6 mph - N/A   Clear
3:55 AM 59.9 °F 53.1 °F 78% 29.94 in 10.0 mi WNW 4.6 mph - N/A   Clear
4:15 AM 59.2 °F 51.6 °F 76% 29.94 in 10.0 mi NW 5.8 mph - N/A   Clear
4:35 AM 58.6 °F 50.2 °F 73% 29.94 in 10.0 mi West 4.6 mph - N/A   Clear
4:55 AM 57.9 °F 49.3 °F 73% 29.94 in 10.0 mi WNW 3.5 mph - N/A   Clear
5:15 AM 56.7 °F 49.1 °F 76% 29.95 in 10.0 mi Calm Calm - N/A   Clear
5:35 AM 56.3 °F 48.6 °F 75% 29.95 in 10.0 mi Calm Calm - N/A   Clear
5:55 AM 55.4 °F 47.5 °F 75% 29.95 in 10.0 mi West 3.5 mph - N/A   Clear
6:15 AM 55.4 °F 46.0 °F 71% 29.95 in 10.0 mi WNW 3.5 mph - N/A   Clear
6:35 AM 54.0 °F 45.7 °F 74% 29.96 in 10.0 mi West 3.5 mph - N/A   Clear
6:55 AM 54.0 °F 45.0 °F 72% 29.96 in 10.0 mi Calm Calm - N/A   Clear
7:15 AM 52.7 °F 45.1 °F 75% 29.96 in 10.0 mi WNW 3.5 mph - N/A   Clear
7:35 AM 53.8 °F 43.7 °F 69% 29.97 in 10.0 mi WNW 3.5 mph - N/A   Clear
7:55 AM 52.9 °F 44.8 °F 74% 29.98 in 10.0 mi WSW 4.6 mph - N/A   Clear
8:15 AM 52.2 °F 46.0 °F 80% 29.99 in 10.0 mi WSW 3.5 mph - N/A   Clear
8:35 AM 53.6 °F 45.7 °F 75% 29.99 in 10.0 mi WSW 3.5 mph - N/A   Clear
8:55 AM 54.9 °F 45.5 °F 71% 29.99 in 10.0 mi Calm Calm - N/A   Clear
9:15 AM 56.3 °F 43.0 °F 61% 30.00 in 10.0 mi Calm Calm - N/A   Clear
9:35 AM 57.6 °F 42.6 °F 57% 30.00 in 10.0 mi Calm Calm - N/A   Clear
9:55 AM 57.6 °F 41.0 °F 54% 30.00 in 10.0 mi Calm Calm - N/A   Clear
10:15 AM 58.8 °F 40.3 °F 50% 30.01 in 10.0 mi Calm Calm - N/A   Clear
10:35 AM 59.9 °F 41.9 °F 51% 30.01 in 10.0 mi WSW 5.8 mph - N/A   Clear
10:55 AM 61.3 °F 42.3 °F 50% 30.02 in 10.0 mi WSW 8.1 mph - N/A   Clear
11:15 AM 62.4 °F 39.9 °F 44% 30.02 in 10.0 mi WSW 3.5 mph - N/A   Clear
11:35 AM 62.6 °F 40.3 °F 44% 30.02 in 10.0 mi WSW 6.9 mph - N/A   Clear
11:55 AM 64.6 °F 37.6 °F 37% 30.02 in 10.0 mi Calm Calm - N/A   Clear
12:15 PM 64.6 °F 39.0 °F 39% 30.02 in 10.0 mi SW 5.8 mph - N/A   Clear
12:35 PM 65.1 °F 37.8 °F 36% 30.01 in 10.0 mi SW 4.6 mph - N/A   Scattered Clouds
12:55 PM 66.7 °F 37.8 °F 34% 30.01 in 10.0 mi Calm Calm - N/A   Clear
1:15 PM 68.4 °F 38.1 °F 33% 30.01 in 10.0 mi WSW 9.2 mph - N/A   Clear
1:55 PM 70.5 °F 35.1 °F 27% 30.00 in 10.0 mi SSW 4.6 mph - N/A   Clear
2:15 PM 70.5 °F 34.2 °F 26% 29.99 in 10.0 mi SSE 5.8 mph - N/A   Clear
2:35 PM 72.1 °F 33.6 °F 24% 29.99 in 10.0 mi Calm Calm - N/A   Clear
2:55 PM 72.9 °F 32.5 °F 23% 29.98 in 10.0 mi West 4.6 mph 16.1 mph N/A   Clear
3:15 PM 73.4 °F 32.7 °F 22% 29.97 in 10.0 mi SW 6.9 mph - N/A   Clear
3:35 PM 73.4 °F 32.5 °F 22% 29.96 in 10.0 mi SW 5.8 mph - N/A   Clear
3:55 PM 73.9 °F 31.6 °F 21% 29.95 in 10.0 mi SW 10.4 mph - N/A   Clear
4:15 PM 74.5 °F 30.6 °F 20% 29.95 in 10.0 mi SW 6.9 mph - N/A   Clear
4:35 PM 73.8 °F 30.7 °F 21% 29.94 in 10.0 mi WSW 5.8 mph - N/A   Clear
4:55 PM 75.0 °F 31.6 °F 20% 29.94 in 10.0 mi SSW 5.8 mph - N/A   Clear
5:15 PM 75.0 °F 31.8 °F 21% 29.95 in 10.0 mi SW 10.4 mph - N/A   Clear
5:35 PM 73.6 °F 29.7 °F 20% 29.95 in 10.0 mi South 5.8 mph - N/A   Clear
5:55 PM 73.8 °F 30.9 °F 21% 29.94 in 10.0 mi SSW 6.9 mph - N/A   Clear
6:15 PM 72.7 °F 33.4 °F 24% 29.95 in 10.0 mi SSW 6.9 mph - N/A   Clear
6:35 PM 71.2 °F 35.8 °F 27% 29.95 in 10.0 mi SSW 5.8 mph - N/A   Clear
6:55 PM 70.7 °F 36.5 °F 29% 29.96 in 10.0 mi SW 6.9 mph - N/A   Clear
7:15 PM 69.8 °F 36.0 °F 29% 29.96 in 10.0 mi SW 6.9 mph - N/A   Clear
7:35 PM 68.5 °F 36.3 °F 31% 29.96 in 10.0 mi SW 5.8 mph - N/A   Clear
7:55 PM 67.1 °F 36.9 °F 33% 29.97 in 10.0 mi SW 6.9 mph - N/A   Clear
8:15 PM 66.0 °F 37.4 °F 35% 29.97 in 10.0 mi SW 4.6 mph - N/A   Clear
8:35 PM 63.9 °F 39.4 °F 41% 29.98 in 10.0 mi SW 5.8 mph - N/A   Clear
8:55 PM 64.4 °F 38.8 °F 39% 29.99 in 10.0 mi WSW 4.6 mph - N/A   Clear
9:15 PM 62.8 °F 39.7 °F 43% 29.99 in 10.0 mi WSW 4.6 mph - N/A   Clear
9:35 PM 62.8 °F 39.9 °F 43% 30.01 in 10.0 mi WSW 8.1 mph - N/A   Clear
9:55 PM 61.9 °F 40.1 °F 45% 30.01 in 10.0 mi WSW 4.6 mph - N/A   Clear
10:15 PM 61.2 °F 40.1 °F 46% 30.02 in 10.0 mi SW 3.5 mph - N/A   Clear
10:35 PM 61.3 °F 40.3 °F 46% 30.02 in 10.0 mi Calm Calm - N/A   Clear
10:55 PM 59.5 °F 41.5 °F 51% 30.02 in 10.0 mi Calm Calm - N/A   Clear
11:15 PM 59.9 °F 38.8 °F 46% 30.02 in 10.0 mi West 4.6 mph - N/A   Clear
11:35 PM 59.9 °F 37.0 °F 43% 30.02 in 10.0 mi West 3.5 mph - N/A   Clear
11:55 PM 59.7 °F 36.9 °F 43% 30.02 in 10.0 mi Calm Calm - N/A   Clear